This demonstration page uses our WeatherBlox Daily Observations layout. Learn more.

Left ArrowRight Arrow

Hourly Observations for February 8, 2016

Temp ( °F °C ) Dew Point ( °F °C ) Humidity (%) Winds ( mph kmh ) Pressure ( in mb ) Visibility ( mi km ) Precip ( " mm )
12:15 am 00:15 Clear 29 -1.9 16 -9.1 58 58 WNW 16 26 30.27 1025 10 16 N/A
12:35 am 00:35 Clear 29 -1.8 16 -9.1 58 58 NW 20 31 30.27 1025 10 16 N/A
12:55 am 00:55 Clear 29 -1.8 16 -9 58 58 NW 22 35 30.27 1025 10 16 N/A
1:15 am 01:15 Clear 29 -1.6 16 -9 57 57 NW 21 33 30.27 1025 10 16 N/A
1:35 am 01:35 Clear 29 -1.8 16 -9 58 58 NW 22 35 30.27 1025 10 16 N/A
1:55 am 01:55 Clear 28 -2.3 16 -9 60 60 NW 20 31 30.27 1025 10 16 N/A
2:15 am 02:15 Clear 27 -3 16 -9.1 63 63 NW 18 30 30.30 1026 10 16 N/A
2:35 am 02:35 Clear 27 -2.8 16 -9.1 62 62 NW 20 31 30.30 1026 10 16 N/A
2:55 am 02:55 Clear 27 -3 16 -9.1 63 63 NW 20 31 30.30 1026 10 16 N/A
3:15 am 03:15 Clear 27 -2.7 15 -9.2 61 61 NW 15 24 30.30 1026 10 16 N/A
3:35 am 03:35 Clear 28 -2.5 15 -9.5 59 59 NW 18 30 30.27 1025 10 16 N/A
3:55 am 03:55 Clear 28 -2 15 -9.6 56 56 NNW 20 31 30.24 1024 10 16 N/A
4:15 am 04:15 Clear 28 -2 15 -9.2 58 58 NW 22 35 30.24 1024 10 16 N/A
4:35 am 04:35 Clear 29 -1.9 15 -9.3 57 57 NW 25 41 30.24 1024 10 16 N/A
4:55 am 04:55 Clear 28 -2.3 16 -9.1 60 60 NW 22 35 30.24 1024 10 16 N/A
5:15 am 05:15 Clear 27 -3 16 -9 64 64 NW 22 35 30.30 1026 10 16 N/A
5:35 am 05:35 Clear 27 -3 16 -9 64 64 NW 21 33 30.30 1026 10 16 N/A
5:55 am 05:55 Clear 27 -2.9 16 -9 63 63 NW 20 31 30.30 1026 10 16 N/A
6:15 am 06:15 Clear 27 -2.7 16 -9.1 62 62 NW 24 39 30.30 1026 10 16 N/A
6:35 am 06:35 Clear 27 -2.8 16 -9 63 63 NW 25 41 30.30 1026 10 16 N/A
6:55 am 06:55 Clear 27 -3 16 -9 64 64 NW 23 37 30.30 1026 10 16 N/A
7:15 am 07:15 Clear 27 -2.8 16 -9.1 62 62 NW 21 33 30.33 1027 10 16 N/A
7:35 am 07:35 Clear 27 -2.9 16 -9.1 63 63 NW 23 37 30.33 1027 10 16 N/A
7:55 am 07:55 Sunny 27 -2.7 15 -9.2 61 61 NW 23 37 30.33 1027 10 16 N/A
8:15 am 08:15 Sunny 27 -2.7 15 -9.2 61 61 NW 24 39 30.33 1027 10 16 N/A
8:35 am 08:35 Sunny 27 -2.6 15 -9.2 61 61 NW 23 37 30.33 1027 10 16 N/A
8:55 am 08:55 Sunny 28 -2.5 16 -9.1 61 61 NNW 18 30 30.36 1028 10 16 N/A
9:15 am 09:15 Sunny 28 -2.5 16 -8.9 62 62 NNW 16 26 30.36 1028 10 16 N/A
9:35 am 09:35 Sunny 28 -2 16 -8.8 60 60 NW 21 33 30.36 1028 10 16 N/A
9:55 am 09:55 Sunny 29 -1.8 16 -8.7 60 60 NW 22 35 30.36 1028 10 16 N/A
10:15 am 10:15 Sunny 29 -1.4 17 -8.5 59 59 NW 23 37 30.36 1028 10 16 N/A
10:35 am 10:35 Sunny 30 -1 17 -8.5 57 57 NW 22 35 30.36 1028 10 16 N/A
10:55 am 10:55 Sunny 31 -0.7 17 -8.2 57 57 NW 23 37 30.36 1028 10 16 N/A
11:15 am 11:15 Sunny 31 -0.5 17 -8.2 56 56 NNW 22 35 30.36 1028 10 16 N/A
11:35 am 11:35 Sunny 32 undefined 17 -8.2 54 54 NNW 22 35 30.36 1028 10 16 N/A
11:55 am 11:55 Sunny 32 0.1 18 -8 55 55 NNW 23 37 30.36 1028 10 16 N/A
12:15 pm 12:15 Sunny 33 0.4 17 -8.5 52 52 NNW 21 33 30.36 1028 10 16 N/A
12:35 pm 12:35 Sunny 33 0.6 17 -8.6 51 51 NNW 23 37 30.36 1028 10 16 N/A
12:55 pm 12:55 Sunny 33 0.8 16 -8.7 49 49 NNW 23 37 30.33 1027 10 16 N/A
1:15 pm 13:15 Sunny 33 0.8 16 -8.9 49 49 NW 26 43 30.33 1027 10 16 N/A
1:35 pm 13:35 Sunny 34 1 17 -8.2 51 51 NW 17 28 30.30 1026 10 16 N/A
1:55 pm 13:55 Sunny 34 1.2 16 -8.9 47 47 NNW 25 41 30.30 1026 10 16 N/A
2:15 pm 14:15 Sunny 34 1.3 16 -8.7 48 48 NNW 21 33 30.30 1026 10 16 N/A
2:35 pm 14:35 Sunny 35 1.5 17 -8.3 49 49 NNW 22 35 30.27 1025 10 16 N/A
2:55 pm 14:55 Sunny 34 1.2 18 -7.9 51 51 NNW 16 26 30.30 1026 10 16 N/A
3:15 pm 15:15 Sunny 35 1.5 18 -8 50 50 NNW 15 24 30.27 1025 10 16 N/A
3:35 pm 15:35 Sunny 35 1.4 16 -8.9 47 47 NNW 22 35 30.30 1026 10 16 N/A
3:55 pm 15:55 Sunny 34 1.2 17 -8.2 50 50 NNW 14 22 30.30 1026 10 16 N/A
4:15 pm 16:15 Sunny 35 1.5 17 -8.1 49 49 NNW 15 24 30.27 1025 10 16 N/A
4:35 pm 16:35 Sunny 34 1.2 18 -8 51 51 NNW 10 17 30.30 1026 10 16 N/A
4:55 pm 16:55 Sunny 34 1 18 -8 51 51 NW 9 15 30.30 1026 10 16 N/A
5:15 pm 17:15 Sunny 34 1.1 17 -8.3 50 50 NNW 13 20 30.30 1026 10 16 N/A
5:35 pm 17:35 Sunny 34 1.1 16 -9.1 47 47 NNW 14 22 30.30 1026 10 16 N/A
5:55 pm 17:55 Sunny 33 0.3 16 -8.9 50 50 NW 12 19 30.30 1026 10 16 N/A
6:15 pm 18:15 Clear 29 -1.7 17 -8.2 62 62 NW 7 11 30.33 1027 10 16 N/A
6:35 pm 18:35 Clear 28 -2.4 17 -8.4 64 64 NW 8 13 30.33 1027 10 16 N/A
6:55 pm 18:55 Clear 29 -1.5 17 -8.3 60 60 WNW 7 11 30.30 1026 10 16 N/A
7:15 pm 19:15 Clear 29 -1.8 17 -8.6 60 60 WNW 7 11 30.33 1027 10 16 N/A
7:35 pm 19:35 Clear 28 -2.3 16 -8.7 62 62 WNW 8 13 30.33 1027 10 16 N/A
7:55 pm 19:55 Clear 29 -1.8 16 -9 58 58 WNW 9 15 30.33 1027 10 16 N/A
8:15 pm 20:15 Clear 28 -2 16 -9.1 59 59 WNW 10 17 30.33 1027 10 16 N/A
8:35 pm 20:35 Clear 27 -2.6 15 -9.2 61 61 WNW 9 15 30.33 1027 10 16 N/A
8:55 pm 20:55 Clear 27 -3 15 -9.5 61 61 W 12 19 30.33 1027 10 16 N/A
9:15 pm 21:15 Clear 26 -3.5 15 -9.6 63 63 W 10 17 30.33 1027 10 16 N/A
9:35 pm 21:35 Clear 26 -3.2 14 -9.8 61 61 WNW 9 15 30.30 1026 10 16 N/A
9:55 pm 21:55 Clear 25 -3.7 14 -10.1 62 62 W 9 15 30.30 1026 10 16 N/A
10:15 pm 22:15 Clear 25 -4.1 13 -10.3 62 62 W 10 17 30.30 1026 10 16 N/A
10:35 pm 22:35 Clear 25 -3.8 14 -10.1 62 62 WNW 9 15 30.30 1026 10 16 N/A
10:55 pm 22:55 Clear 25 -4.1 14 -10.2 63 63 WNW 9 15 30.30 1026 10 16 N/A
11:15 pm 23:15 Clear 25 -4 14 -10 63 63 WNW 12 19 30.30 1026 10 16 N/A
11:35 pm 23:35 Partly Cloudy 26 -3.1 15 -9.5 62 62 WNW 10 17 30.30 1026 10 16 N/A
11:55 pm 23:55 Partly Cloudy 26 -3.5 16 -9 66 66 WNW 8 13 30.30 1026 10 16 N/A

Powered by AerisWeather